Regional Weather Roundup
Issued by NWS

Home | Current Version | Previous Version | Graphics & Text | Print | Product List | Glossary Off
Versions: 1 2 3 4 5 6 7 8 9 10 11 12 13 14 15 16 17 18 19 20 21 22 23 24 25 26 27 28 29 30 31 32 33 34 35 36 37 38 39 40 41 42 43 44 45 46 47 48 49 50

271
ASUS43 KDMX 300703
RWRIA

WEATHER ROUNDUP FOR IOWA
NATIONAL WEATHER SERVICE DES MOINES IA
200 AM CDT FRI SEP 30 2016

NOTE: "FAIR" INDICATES FEW OR NO CLOUDS BELOW 12,000 FEET WITH NO
SIGNIFICANT WEATHER AND/OR OBSTRUCTIONS TO VISIBILITY.

* - THESE STATIONS ARE NOT NWS STATIONS...THUS NOT UNDER NWS
QUALITY CONTROL.  THEY ALSO DO NOT REPORT WEATHER SUCH
AS PRECIPITATION OR FOG.

IAZ001>003-012>014-020>022-031>034-043>046-300800-
   NORTHWEST IOWA

CITY           SKY/WX    TMP DP  RH WIND       PRES   REMARKS
CARROLL *      CLEAR     48  46  93 N3        30.33S
CHEROKEE *     CLEAR     46  46 100 NE3       30.35F
DENISON *      CLEAR     45  43  93 CALM      30.31F
LE MARS *      CLEAR     45  43  93 CALM      30.35F
SHELDON *      CLEAR     50  48  93 E6        30.34S
SIOUX CITY     PTCLDY    49  47  93 NW3       30.34F
SPENCER        CLEAR     46  44  93 NE3       30.36F
STORM LAKE *   CLEAR     52  46  82 NE6       30.34F
$$

IAZ055>058-069>071-079>083-090>094-300800-
   SOUTHWEST IOWA

CITY           SKY/WX    TMP DP  RH WIND       PRES   REMARKS
ATLANTIC *     CLEAR     46  45  93 N5        30.32S
AUDUBON *      CLEAR     48  45  87 CALM      30.33F
CLARINDA *       N/A     50  48  93 MISG      30.32S FOG
COUNCIL BLFS * CLEAR     50  46  87 NE7       30.31F
CRESTON *      CLEAR     54  48  82 N8        30.31F
HARLAN  *      CLEAR     46  45  93 CALM      30.35F
LAMONI         CLEAR     52  48  86 N7        30.28F
RED OAK *      CLEAR     48  46  93 NE7       30.31F
SHENANDOAH *   CLEAR     46  45  93 CALM      30.31F
$$

IAZ047>049-059>061-072>074-084-300800-
   CENTRAL IOWA

CITY           SKY/WX    TMP DP  RH WIND       PRES   REMARKS
AMES           CLEAR     53  51  93 NW6       30.31S
ANKENY *         N/A    N/A N/A N/A MISG        N/A
BOONE *        CLEAR     50  48  93 N6        30.31S FOG
CHARITON *       N/A     52  48  87 N7        30.27F
DES MOINES     CLEAR     58  50  75 NE8       30.29F
GRINNELL*      CLEAR     55  50  82 N7        30.29S
KNOXVILLE *    CLEAR     57  50  77 N6        30.27S
MARSHALLTOWN   CLEAR     52  50  93 N8        30.29F
NEWTON *       CLEAR     54  50  87 N9        30.28S
PELLA *        CLEAR     53  49  86 N3        30.29S
PERRY *          N/A     48  48  98 NW5       30.32F
$$

IAZ004>006-015-016-023>025-035-036-300800-
   NORTH CENTRAL IOWA

CITY           SKY/WX    TMP DP  RH WIND       PRES   REMARKS
ALGONA *       CLEAR     48  46  93 N5        30.35S
CLARION *      CLEAR     48  48 100 N3        30.33S
ESTHERVILLE    CLEAR     43  43 100 NE7       30.35F
FORT DODGE *   CLEAR     46  43  87 CALM      30.33F
MASON CITY     CLEAR     47  45  93 N3        30.35F
FOREST CITY *    N/A     46  45  93 CALM      30.34F
WEBSTER CITY * CLEAR     46  46 100 N6        30.31S
IOWA FALLS *     N/A     54  50  85 N6        30.33S
$$

IAZ007>011-017>019-026>030-037>042-050>054-066-300800-
   NORTHEAST IOWA

CITY           SKY/WX    TMP DP  RH WIND       PRES   REMARKS
CEDAR RAPIDS   CLEAR     54  49  83 N8        30.26F
CHARLES CITY * CLEAR     52  50  93 N5        30.33F
CLINTON *      PTCLDY    54  51  90 N8        30.23F
DECORAH *      CLEAR     54  52  94 N6        30.31F
DUBUQUE        PTCLDY    55  48  77 N9        30.27S
MONTICELLO *   CLEAR     54  46  76 CALM      30.27S
OELWEIN *      CLEAR     54  50  87 NE6       30.31R
WATERLOO       CLEAR     52  48  86 N9        30.29F
$$

IAZ064-065-067-068-078-300800-
   EAST CENTRAL IOWA

CITY           SKY/WX    TMP DP  RH WIND       PRES   REMARKS
DAVENPORT      CLEAR     53  50  89 N8        30.24S
IOWA CITY      CLEAR     57  48  72 N9        30.26F
MT. PLEASANT * CLEAR     58  53  81 N8        30.23S
MUSCATINE *    CLEAR     57  50  77 CALM      30.24S
QUAD CITIES    MOCLDY    60  51  72 N8        30.22S
$$

IAZ062-063-075>077-085>089-095>099-300800-
   SOUTHEAST IOWA

CITY           SKY/WX    TMP DP  RH WIND       PRES   REMARKS
BURLINGTON     CLEAR     59  54  83 N12       30.22S
FAIRFIELD *    PTCLDY    54  48  82 N7        30.24F
FORT MADISON * CLEAR     55  54  94 N5        30.22F
KEOKUK *       PTCLDY    59  54  82 NW5       30.21S
OSKALOOSA *      N/A     54  49  86 N7        30.27S
OTTUMWA        CLEAR     56  49  77 N8        30.26F
WASHINGTON *     N/A    N/A N/A N/A MISG        N/A
$$

ABBREVIATIONS USED IN REMARKS
   TC - TEMPERATURES IN CELSIUS
  WCI - WIND CHILL INDEX
   HX - HEAT INDEX
  VSB - VISIBILITY
$$





USA.gov is the U.S. government's official web portal to all federal, state and local government web resources and services.